Regional Weather Roundup
Issued by NWS State College, PA

Home | Current Version | Previous Version | Text Only | Print | Product List | Glossary On
Versions: 1 2 3 4 5 6 7 8 9 10 11 12 13 14 15 16 17 18 19 20 21 22 23 24 25 26 27 28 29 30 31 32 33 34 35 36 37 38 39 40 41 42 43 44 45 46 47 48 49 50
000
ASUS41 KCTP 021603
RWRCTP

REGIONAL WEATHER ROUNDUP
NATIONAL WEATHER SERVICE STATE COLLEGE PA
1100 AM EST MON MAR 02 2015

Note: "fair" indicates few or no clouds below 12,000 feet with no
significant weather and/or obstructions to visibility.

* = STATION THAT DOES NOT REPORT PRECIPITATION /E.G. RAIN...SNOW...ETC/
    THUNDER OR FOG.

PAZ002>004-007>009-013>016-020>023-029>032-021700-
WESTERN PENNSYLVANIA

CITY           SKY/WX    TMP DP  RH WIND       PRES   REMARKS
ERIE           SUNNY     23  14  68 W15G24    30.39R WCI  10
MEADVILLE        N/A     23  11  60 W10       30.35R WCI  12
FRANKLIN*      CLOUDY    21  10  63 NW14G20   30.36R WCI   8
NEW CASTLE     FLURRIES  24  17  74 W12       30.42R WCI  13
BEAVER COUNTY  FLURRIES  25  18  74 W8        30.40R
BUTLER*        PTSUNNY   25  16  68 W14       30.40S WCI  13
PITTSBURGH INT FLURRIES  25  16  68 W15       30.41R WCI  13
PITTSBURGH     LGT SNOW  25  13  60 W13G21    30.39S WCI  14
INDIANA*       CLOUDY    23  18  80 W12G21    30.39R HAZE    WCI  12
LATROBE        FLURRIES  25  18  74 W13       30.41R WCI  13
WASHINGTON CO* CLOUDY    27  16  63 W7        30.43R
$$

PAZ004>006-010>012-017>019-024>028-033>037-041-042-045-046-049>053-021700-
CENTRAL PENNSYLVANIA

CITY           SKY/WX    TMP DP  RH WIND       PRES   REMARKS
BRADFORD       LGT SNOW  20  12  71 W15G26    30.21R WCI   6
DUBOIS         CLOUDY    21  15  78 W14G22    30.27R HAZE    WCI   8
CLEARFIELD     LGT SNOW  23  14  68 W14G21    30.29R WCI  11
JOHNSTOWN      LGT SNOW  20  13  74 W13       30.27R WCI   7
ALTOONA        SUNNY     26  13  57 W22G28    30.28F WCI  12
STATE COLLEGE  CLOUDY    27  14  59 W20G29    30.29R WCI  13
WILLIAMSPORT   MOSUNNY   31  12  45 W20G28    30.24F
SELINSGROVE    MOSUNNY   32  14  47 W10G20    30.28R
FT INDIANTOWN  MIX PCPN  32  12  43 NW12G33   30.25R
CAPITAL CITY   SUNNY     33  13  43 NW24G32   30.26R
HARRISBURG     NOT AVBL
YORK           NOT AVBL
$$

PAZ038>040-043-044-047-048-054-055-060>062-067>071-021700-
EASTERN PENNSYLVANIA

CITY           SKY/WX    TMP DP  RH WIND       PRES   REMARKS
SCRANTON       MIX PCPN  29  11  47 NW21G29   30.18R
MOUNT POCONO   MIX PCPN  24  10  55 NW26G35   30.06S WCI   8
ALLENTOWN      FLURRIES  33  19  56 NW20G32   30.20R
QUAKERTOWN*    MOSUNNY   34  19  55 NW16G26   30.19R
READING        MIX PCPN  32  17  54 NW21G30   30.23R
LANCASTER      MOSUNNY   33  17  51 NW21G33   30.24R
COATESVILLE    MOSUNNY   34  23  64 NW18G38   30.20S
POTTSTOWN      MOSUNNY   34  18  52 NW18G29   30.21S
BLUE BELL      MOSUNNY   36  28  75 NW7       30.20R
DOYLESTOWN     PTSUNNY   35  22  58 NW15G26   30.17R
WILLOW GROVE   NOT AVBL
NORTH PHILA    CLOUDY    38  22  52 NW15G29   30.22R
PHILADELPHIA   PTSUNNY   38  25  59 NW18G29   30.22R
$$


USA.gov is the U.S. government's official web portal to all federal, state and local government web resources and services.